Location: Juvignies
(49.5194°N, 2.0863°E)
Time: 15:45:18
(UTC+00:00)

Daily predictions for brighter satellites

Satellite Brightness Start Highest point End
(mag) Time Altitude Azimuth Time Altitude Azimuth Time Altitude Azimuth
Cosmos 2227 Rocket 2.9 20:13:38 10° NW 20:19:09 53° WSW 20:24:37 10° S
Cosmos 921 Rocket 3.3 20:16:00 10° NNW 20:20:31 61° ENE 20:24:56 10° SSE
Landsat 7 4.4 20:16:40 10° S 20:21:18 58° W 20:25:59 10° NNW
PSLV R/B 3.9 20:17:58 10° NNE 20:22:02 83° ESE 20:26:04 10° SSW
Cosmos 1980 Rocket 2.5 20:24:31 10° S 20:29:54 48° ESE 20:35:20 10° NE
Cosmos 1869 Rocket 4.3 20:25:45 10° N 20:30:01 41° ENE 20:34:15 10° SE
CARTOSAT-1 3.7 20:27:00 10° SSE 20:31:14 60° ENE 20:35:30 10° N
Cosmos 2228 Rocket 4.1 20:29:52 10° SSE 20:33:51 30° E 20:37:50 10° NNE
Cosmos 1464 Rocket 4.0 20:28:43 10° S 20:34:53 74° E 20:41:02 10° NNE
ARGOS Delta rocket 4.2 20:30:16 10° NNE 20:35:48 86° ESE 20:41:14 10° SSW
Cosmos 2344 3.6 20:30:33 10° SSW 20:37:52 59° ESE 20:45:23 10° NE
ISS -3.8 20:34:31 10° WNW 20:37:53 87° SSW 20:41:13 10° ESE
Cosmos 2322 Rocket 4.0 20:37:10 10° ESE 20:39:06 12° E 20:41:03 10° ENE
Cosmos 2369 3.7 20:33:57 10° SSW 20:39:31 64° ESE 20:45:08 10° NNE
Cosmos 773 Rocket 4.1 20:34:54 10° NNW 20:40:08 70° ENE 20:45:18 10° SSE
Cosmos 1354 Rocket 4.2 20:35:22 10° S 20:40:27 52° ESE 20:45:37 10° NNE
Cosmos 1536 3.4 20:36:37 10° NNW 20:40:35 58° W 20:44:33 10° S
Spot 2 Rocket 3.9 20:35:58 10° SE 20:40:48 49° ENE 20:45:40 10° N
SPOT 3 Rocket 3.6 20:36:49 10° SSE 20:41:57 76° ENE 20:47:07 10° NNW
ATLAS 2AS CENTAUR R/B 3.2 20:35:17 10° S 20:42:39 47° ESE 20:49:48 10° NE
Okean 1 3.6 20:41:12 10° S 20:45:03 49° E 20:48:57 10° NNE
H-2A R/B 3.1 20:41:41 10° N 20:45:37 46° WNW 20:49:33 10° SW
Cosmos 1486 Rocket 4.3 20:40:37 10° SSW 20:45:55 77° WNW 20:51:14 10° NNE
Cosmos 1092 Rocket 4.4 20:40:16 10° N 20:46:17 50° ENE 20:52:05 11° SSE
Meteor 1-19 Rocket 4.3 20:41:55 10° S 20:47:10 54° E 20:52:26 10° NNE
Nadezhda 4 Rocket 4.0 20:40:55 10° N 20:47:12 83° E 20:53:22 10° S
NOSS 3-4 (A) 3.7 20:41:28 10° SW 20:47:13 74° NW 20:53:32 10° NE
NOSS 3-4 (C) 3.7 20:41:31 10° SW 20:47:17 75° NW 20:53:37 10° NE
SL-4 R/B 3.7 20:44:43 10° W 20:48:27 25° SW 20:52:00 10° SSE
RESURS DK-1 3.0 20:44:55 10° S 20:48:41 36° ESE 20:52:29 10° NE
Cosmos 1697 Rocket 3.1 20:43:03 10° SW 20:48:43 71° WNW 20:54:24 10° NNE
Meteor 2-14 Rocket 4.5 20:44:03 10° N 20:50:09 76° E 20:56:15 10° SSE
USA 267 4.3 20:49:04 10° ENE 20:55:16 47° N 21:01:28 10° WNW
Cosmos 2297 Rocket 4.4 20:51:27 10° NW 20:55:26 20° W 20:59:24 10° SW
ATLAS CENTAUR R/B 3.8 20:51:51 10° NNW 20:55:37 21° NNE 20:59:18 10° ENE
Cosmos 44 Rocket 3.4 20:52:37 10° NW 20:57:20 66° NE 21:01:28 13° SE
ARIANE 5 R/B 3.6 20:53:39 12° SE 20:57:22 36° ENE 21:01:31 10° N
MetOp-B 4.5 20:53:32 10° S 20:58:51 66° WSW 21:04:13 10° NNW
Cosmos 2227 4.5 20:57:16 10° NNW 21:03:00 64° ENE 21:07:59 14° SE
Cosmos 1184 Rocket 3.7 21:01:28 10° SSW 21:04:23 45° WNW 21:07:18 10° N
Cosmos 158 Rocket 4.1 20:59:53 10° NNW 21:04:59 67° ENE 21:09:24 15° SE
ATLAS 3B R/B 3.2 20:59:01 10° NW 21:06:16 64° NE 21:13:24 12° ESE
Meteor 2-9 Rocket 4.3 21:00:41 10° NNW 21:06:31 84° WSW 21:12:06 10° S
NOSS 2-1 (E) 4.3 21:08:10 17° SE 21:08:47 18° ESE 21:11:04 10° ENE
Cosmos 1975 3.1 21:06:27 10° N 21:10:30 57° ENE 21:13:33 16° SSE
Cosmos 2026 Rocket 4.1 21:05:28 10° N 21:11:37 66° ENE 21:17:01 14° SSE
Cosmos 389 Rocket 4.4 21:08:47 10° NW 21:11:47 27° W 21:14:47 10° SSW
Cosmos 1503 Rocket 4.3 21:09:57 10° SSW 21:15:13 73° WNW 21:20:36 10° NNE
CZ-4B R/B 3.8 21:13:38 10° NNW 21:16:14 23° WNW 21:18:49 10° WSW
ERS-1 Rocket 3.0 21:12:32 14° SSE 21:16:55 83° ENE 21:21:59 10° NNW
CZ-4C R/B 4.2 21:11:50 10° NW 21:17:38 32° NNE 21:24:30 10° E
Meteor 1-4 Rocket 4.2 21:14:58 10° NNE 21:17:41 21° ENE 21:19:36 14° ESE
SL-16 R/B 3.0 21:13:28 13° SSE 21:17:48 32° ESE 21:22:47 10° NE
BREEZE-M (TANK) 4.4 21:13:24 10° W 21:17:58 88° S 21:38:53 10° E
Cosmos 1538 Rocket 4.2 21:15:07 10° NNW 21:20:22 65° ENE 21:24:18 17° SE
Helios 1A Rocket 3.3 21:19:01 13° S 21:22:32 60° WSW 21:26:31 10° NNW
CZ-2C R/B 3.9 21:18:39 10° NNE 21:23:24 63° ESE 21:27:47 12° S
Cosmos 1733 Rocket 3.5 21:20:24 10° N 21:24:46 51° ENE 21:27:44 19° SE
Geosat 4.4 21:28:35 16° SE 21:32:25 56° NE 21:37:21 10° NNW
SJ 16-02 1.7 21:28:09 10° SSW 21:32:29 67° WNW 21:36:52 10° NNE
Meteor 1-18 Rocket 4.2 21:27:17 10° S 21:32:59 84° ESE 21:38:38 10° NNE
Cosmos 2292 Rocket 3.0 21:33:28 10° NNW 21:36:29 58° W 21:38:15 21° S
Cosmos 2278 3.7 21:32:33 10° SSW 21:38:13 87° WNW 21:43:57 10° NNE
Cosmos 1862 Rocket 4.0 21:37:31 21° SSE 21:40:14 48° E 21:44:33 10° NNE
BREEZE M DEB (TANK) 4.3 21:37:42 10° W 21:42:07 51° SSW 21:55:47 13° SE
Cosmos 2360 Rocket 3.4 21:40:42 19° SE 21:42:59 25° ESE 21:47:28 10° NE
Cosmos 1726 4.0 21:40:49 10° NNE 21:43:30 19° ENE 21:45:09 14° ESE
Cosmos 2263 Rocket 2.8 21:39:43 10° NW 21:45:03 47° WSW 21:49:11 16° S
Meteor 2-15 4.4 21:41:00 15° S 21:46:06 72° E 21:52:10 10° NNE
NOSS 2-1 (C) 2.8 21:46:44 17° SSW 21:49:00 52° SE 21:52:11 10° NE
SPOT 5 3.8 21:45:43 13° S 21:50:13 48° W 21:55:11 10° NNW
Terra 2.1 21:47:56 18° S 21:51:24 62° WSW 21:56:09 10° NNW
Cosmos 1441 Rocket 3.5 21:51:04 28° SSE 21:52:36 45° E 21:56:11 10° NNE
Resurs 01 Rocket 4.3 21:51:15 10° WSW 21:52:54 12° W 21:54:34 10° WNW
SAR-Lupe-1 4.1 21:49:30 10° NNE 21:53:03 60° ESE 21:54:46 28° S
Cosmos 1346 Rocket 2.8 21:50:23 19° S 21:53:15 90° NNE 21:57:18 10° NNE
Cosmos 2279 Rocket 4.0 21:53:29 18° S 21:58:08 70° E 22:04:21 10° NNE
NOSS 2-1 (D) 2.6 21:56:58 16° SSW 21:59:27 68° SE 22:02:41 10° NE
Cosmos 1680 Rocket 4.1 21:54:56 10° NNW 22:00:07 50° ENE 22:03:26 21° SE
USA 215 4.0 21:55:08 10° ENE 22:00:43 29° SE 22:03:42 21° SSE
Cosmos 990 Rocket 4.3 21:57:54 23° SSE 22:00:52 47° ESE 22:05:53 10° NNE
Iridium 2 3.6 21:58:55 10° N 22:02:42 79° E 22:04:23 31° SSE
Cosmos 1818 4.0 22:02:51 10° NW 22:08:17 59° NE 22:12:09 19° ESE
Cosmos 1066 Rocket 4.3 22:05:06 23° S 22:08:45 62° E 22:14:19 10° NNE
ADEOS Rocket 4.5 22:05:31 11° ESE 22:09:55 25° NE 22:14:47 10° N
Iridium 4 Rocket 3.9 22:07:06 10° N 22:11:27 42° E 22:13:44 26° SE
Cosmos 1980 Rocket 3.8 22:08:54 10° WSW 22:14:04 36° NW 22:19:18 10° NNE
Cosmos 1898 Rocket 4.0 22:11:50 26° SSE 22:14:15 42° ESE 22:19:15 10° NE
ISS -2.2 22:11:40 10° W 22:14:20 22° SW 22:14:21 22° SW
Okean 1-7 3.5 22:17:26 30° SE 22:19:04 44° E 22:23:14 10° NNE
Iridium 51 4.1 22:21:01 41° SSE 22:21:58 60° E 22:25:30 10° N
Cosmos 2322 Rocket 2.1 22:18:02 19° SSW 22:22:06 71° ESE 22:27:43 10° NNE
Cosmos 1844 Rocket 2.6 22:19:14 10° NNW 22:24:52 86° ENE 22:27:57 28° SSE
Cosmos 2180 Rocket 4.4 22:21:19 22° S 22:25:26 84° E 22:31:37 10° N
Okean 3 4.1 22:25:02 31° SE 22:26:20 40° E 22:30:19 10° NNE
RESURS DK-1 4.3 22:23:04 10° WSW 22:26:43 30° NW 22:30:24 10° NNE
Cosmos 1805 3.3 22:23:02 10° NNW 22:26:56 70° W 22:28:28 35° S
Cosmos 2333 Rocket 3.1 22:25:18 25° SE 22:27:08 31° ESE 22:32:02 10° NE
Cosmos 1461 4.3 22:27:00 10° NNW 22:30:46 33° NE 22:33:54 14° E
H-2A R/B 4.5 22:27:51 10° NE 22:31:29 29° E 22:32:20 27° ESE
BREEZE-M DEB (TANK) 3.2 22:29:10 10° W 22:31:39 32° SSW 22:31:52 32° SSW
ATLAS 2AS CENTAUR R/B 3.6 22:25:55 10° WSW 22:33:35 59° NW 22:40:58 10° NE
ARIANE 5 R/B 4.1 22:31:11 17° SW 22:33:52 29° W 22:37:50 10° NW
ATLAS CENTAUR R/B 1.9 22:30:22 10° NW 22:35:17 69° NE 22:37:50 27° SE
USA 267 3.6 22:31:20 10° ESE 22:37:49 68° NNE 22:44:19 10° WNW
Cosmos 1733 3.8 22:36:22 10° NNW 22:40:02 48° W 22:41:23 32° SSW
Cosmos 1766 3.2 22:38:10 10° N 22:42:07 90° WNW 22:43:23 42° S
Cosmos 2219 Rocket 3.0 22:44:47 27° SE 22:46:27 33° ESE 22:51:23 10° NE
Cosmos 1844 3.7 22:42:45 10° NNW 22:48:35 77° WSW 22:51:27 31° SSE
Cosmos 1703 Rocket 3.5 22:48:15 36° S 22:50:02 85° ESE 22:54:30 10° N
Meteor 1-4 Rocket 3.9 22:49:29 10° NNW 22:52:33 29° W 22:53:35 24° SW
Cosmos 372 Rocket 4.4 22:51:17 33° SSE 22:53:02 46° ESE 22:57:58 10° NNE
ATLAS 3B R/B 3.6 22:50:02 10° NW 22:56:49 40° WSW 23:00:39 25° SSW
NOSS 2-1 (E) 4.3 22:55:51 10° WSW 22:58:52 36° NW 23:02:02 10° NNE
NOSS 3-1 (A) 4.3 22:53:28 10° NW 23:00:34 65° NE 23:08:57 10° ESE
Cosmos 1655 Rocket 4.1 22:54:35 10° NNW 23:00:47 68° W 23:04:10 28° S
Cosmos 1707 3.7 23:00:36 31° ESE 23:01:15 33° E 23:04:46 10° NNE
SL-16 R/B 3.0 22:56:12 10° SW 23:01:42 50° NW 23:07:14 10° NNE
Cosmos 1782 Rocket 3.5 22:58:59 10° NNW 23:03:22 81° W 23:04:50 41° S
ERS-2 2.5 23:02:58 10° NNE 23:06:28 45° E 23:06:52 43° ESE
SWARM C 4.5 23:06:26 62° SSE 23:06:52 75° E 23:10:15 10° N
CZ-4C R/B 3.1 23:00:14 10° NW 23:07:15 75° NE 23:14:17 16° SE
NOSS 3-1 (C) 4.0 23:00:39 10° NW 23:07:59 87° SW 23:14:02 22° SE
USA 290 4.3 23:10:46 17° E 23:10:46 17° E 23:12:28 10° ENE
Cosmos 1238 Rocket 4.1 23:09:14 10° NNE 23:11:30 19° ENE 23:11:57 19° E
SJ 16-02 4.4 23:10:29 10° WNW 23:11:57 11° NW 23:13:26 10° NNW
SWARM A 4.1 23:12:49 66° S 23:13:15 85° E 23:16:39 10° N
Gblst 52 Del rocket 4.2 23:07:55 10° WSW 23:14:20 74° SSE 23:20:03 10° ENE
Cosmos 2237 Rocket 4.0 23:14:56 14° ESE 23:16:30 16° E 23:19:51 10° ENE
Cosmos 1470 2.6 23:14:16 10° N 23:18:10 88° W 23:19:01 53° S
Cosmos 1726 3.0 23:15:14 10° NNW 23:18:38 37° W 23:19:26 32° WSW
Cosmos 1300 Rocket 3.5 23:15:08 10° N 23:19:30 81° E 23:20:51 44° SSE
COSMOS 2428 3.3 23:17:53 32° SSE 23:19:46 42° ESE 23:25:06 10° NE
Cosmos 2151 Rocket 4.4 23:18:05 10° N 23:22:17 42° ENE 23:23:57 29° ESE
Cosmos 2242 Rocket 4.0 23:21:24 32° SW 23:23:20 61° WNW 23:27:51 10° N
ALOS 2 2.6 23:22:00 43° S 23:23:22 74° WSW 23:27:47 10° NNW
Cosmos 1242 Rocket 2.9 23:21:53 10° N 23:25:25 53° ENE 23:26:07 45° ESE
Cosmos 1937 Rocket 3.6 23:22:47 27° SW 23:25:39 74° WNW 23:30:58 10° NNE
Okean 2 Rocket 3.6 23:21:58 10° N 23:26:25 53° ENE 23:28:05 34° SE
Cosmos 2360 Rocket 2.5 23:22:25 19° SW 23:26:32 63° WNW 23:32:11 10° NNE
Cosmos 405 Rocket 4.2 23:28:20 22° ESE 23:28:52 22° E 23:31:52 10° NE
In-Cosmos 22 4.4 23:29:31 34° SSE 23:31:48 60° E 23:37:10 10° NNE
Cosmos 2333 4.1 23:29:02 29° SSW 23:32:01 88° WNW 23:37:42 10° NNE
Cosmos 1437 Rocket 4.3 23:28:56 10° N 23:32:11 27° ENE 23:33:33 21° ESE
Cosmos 1908 3.9 23:30:11 10° N 23:33:49 43° ENE 23:34:48 35° ESE
Cosmos 1867 3.9 23:33:43 36° S 23:35:27 49° ESE 23:40:44 10° NE
Meteor 1-21 4.3 23:34:35 34° S 23:37:10 71° E 23:42:58 10° NNE
Cosmos 1626 2.8 23:37:36 38° ESE 23:38:04 40° E 23:41:32 10° NNE
Cosmos 1842 4.0 23:38:57 34° WSW 23:40:09 45° WNW 23:43:55 10° N
Cosmos 1953 3.6 23:39:35 10° N 23:43:16 33° ENE 23:44:46 25° ESE
USA 215 3.2 23:37:45 10° ENE 23:44:20 83° SE 23:50:55 10° SW
Cosmos 2278 Rocket 2.6 23:39:22 10° NNW 23:45:01 59° ENE 23:48:51 20° SE
Cosmos 1674 2.6 23:50:45 57° SSE 23:51:22 71° E 23:55:08 10° NNE
Sich 1 Rocket 3.6 23:48:20 10° NNW 23:52:44 70° W 23:54:00 44° SSW
